| time (UTC) | temp C | wind direction | speed KPH | gust KPH | rain 1hr cm | rain 24hr cm | rain mn cm | humidity % | barometer mb |
| 20260503000422 | 8 | 138 | 4.8 | 8.0 | 0.00 | 0.10 | 0.10 | 85 | 1011.0 |
| 20260502235934 | 8 | 107 | 4.8 | 8.0 | 0.00 | 0.10 | 0.10 | 86 | 1011.1 |
| 20260502235428 | 8 | 112 | 4.8 | 9.7 | 0.00 | 0.10 | 0.10 | 86 | 1011.1 |
| 20260502234919 | 8 | 107 | 4.8 | 9.7 | 0.00 | 0.10 | 0.10 | 87 | 1011.0 |
| 20260502234430 | 8 | 133 | 3.2 | 6.4 | 0.00 | 0.10 | 0.10 | 87 | 1011.1 |
| 20260502233921 | 8 | 22 | 3.2 | 6.4 | 0.00 | 0.10 | 0.10 | 86 | 1011.1 |
| 20260502233432 | 9 | 78 | 1.6 | 4.8 | 0.00 | 0.10 | 0.10 | 87 | 1011.1 |
| 20260502232922 | 8 | 22 | 1.6 | 3.2 | 0.00 | 0.10 | 0.10 | 88 | 1010.9 |
| 20260502232413 | 9 | 9 | 0.0 | 0.0 | 0.00 | 0.10 | 0.10 | 89 | 1010.9 |
| 20260502231945 | 8 | 360 | 0.0 | 0.0 | 0.00 | 0.10 | 0.10 | 89 | 1011.0 |
| 20260502231414 | 8 | 14 | 0.0 | 6.4 | 0.00 | 0.10 | 0.10 | 89 | 1011.0 |
| 20260502230947 | 8 | 58 | 4.8 | 9.7 | 0.00 | 0.10 | 0.10 | 89 | 1010.9 |
| 20260502230437 | 8 | 92 | 6.4 | 9.7 | 0.00 | 0.10 | 0.10 | 89 | 1011.0 |
| 20260502225911 | 8 | 104 | 8.0 | 9.7 | 0.00 | 0.10 | 0.10 | 89 | 1011.0 |
| 20260502225443 | 8 | 107 | 6.4 | 6.4 | 0.00 | 0.10 | 0.10 | 88 | 1011.1 |
| 20260502224913 | 8 | 68 | 0.0 | 3.2 | 0.00 | 0.10 | 0.10 | 87 | 1011.1 |
| 20260502224424 | 8 | 313 | 0.0 | 0.0 | 0.00 | 0.10 | 0.10 | 87 | 1011.1 |
| 20260502223915 | 8 | 313 | 0.0 | 1.6 | 0.00 | 0.10 | 0.10 | 87 | 1011.0 |
| 20260502223426 | 8 | 313 | 0.0 | 4.8 | 0.00 | 0.10 | 0.10 | 87 | 1011.0 |
| 20260502222918 | 8 | 313 | 3.2 | 4.8 | 0.00 | 0.10 | 0.10 | 86 | 1010.9 |
| 20260502222450 | 8 | 310 | 0.0 | 6.4 | 0.00 | 0.10 | 0.10 | 85 | 1010.9 |
| 20260502221941 | 8 | 291 | 3.2 | 8.0 | 0.00 | 0.10 | 0.10 | 85 | 1011.2 |
| 20260502221431 | 9 | 263 | 4.8 | 12.9 | 0.00 | 0.10 | 0.10 | 83 | 1011.2 |
| 20260502220926 | 9 | 270 | 9.7 | 16.1 | 0.00 | 0.10 | 0.10 | 82 | 1011.1 |
| 20260502220417 | 9 | 259 | 11.3 | 16.1 | 0.00 | 0.10 | 0.10 | 83 | 1011.2 |
| 20260502215927 | 10 | 289 | 4.8 | 19.3 | 0.00 | 0.10 | 0.10 | 83 | 1011.2 |
| 20260502215418 | 10 | 268 | 9.7 | 19.3 | 0.00 | 0.10 | 0.10 | 83 | 1011.1 |
| 20260502214929 | 10 | 259 | 3.2 | 9.7 | 0.00 | 0.10 | 0.10 | 85 | 1011.1 |
| 20260502214420 | 10 | 247 | 6.4 | 16.1 | 0.00 | 0.10 | 0.10 | 85 | 1011.0 |
| 20260502213931 | 10 | 170 | 8.0 | 16.1 | 0.00 | 0.10 | 0.10 | 84 | 1011.0 |
| 20260502213422 | 10 | 189 | 6.4 | 12.9 | 0.00 | 0.10 | 0.10 | 84 | 1010.9 |
| 20260502212917 | 10 | 176 | 6.4 | 19.3 | 0.00 | 0.10 | 0.10 | 84 | 1010.8 |
| 20260502212448 | 10 | 112 | 11.3 | 20.9 | 0.00 | 0.10 | 0.10 | 84 | 1010.9 |
| 20260502211918 | 10 | 133 | 14.5 | 22.5 | 0.00 | 0.10 | 0.10 | 83 | 1010.9 |
| 20260502211430 | 10 | 169 | 11.3 | 22.5 | 0.00 | 0.10 | 0.10 | 83 | 1010.9 |
| 20260502210921 | 10 | 124 | 11.3 | 19.3 | 0.00 | 0.10 | 0.10 | 82 | 1010.9 |
| 20260502210411 | 10 | 128 | 9.7 | 20.9 | 0.00 | 0.10 | 0.10 | 82 | 1010.9 |
| 20260502205923 | 10 | 115 | 12.9 | 20.9 | 0.00 | 0.10 | 0.10 | 81 | 1010.8 |
| 20260502205413 | 10 | 154 | 14.5 | 20.9 | 0.00 | 0.10 | 0.10 | 81 | 1010.9 |
| 20260502204924 | 10 | 100 | 11.3 | 20.9 | 0.00 | 0.10 | 0.10 | 81 | 1010.9 |
| 20260502204420 | 10 | 174 | 14.5 | 20.9 | 0.00 | 0.10 | 0.10 | 80 | 1010.9 |
| 20260502203912 | 10 | 169 | 9.7 | 22.5 | 0.00 | 0.10 | 0.10 | 80 | 1010.8 |
| 20260502203423 | 10 | 161 | 11.3 | 25.7 | 0.00 | 0.10 | 0.10 | 80 | 1010.8 |
| 20260502202914 | 11 | 152 | 12.9 | 27.4 | 0.00 | 0.10 | 0.10 | 78 | 1010.9 |
| 20260502202447 | 11 | 143 | 12.9 | 24.1 | 0.00 | 0.10 | 0.10 | 78 | 1010.9 |
| 20260502201916 | 11 | 191 | 11.3 | 27.4 | 0.00 | 0.10 | 0.10 | 79 | 1011.0 |
| 20260502201427 | 11 | 176 | 16.1 | 27.4 | 0.00 | 0.10 | 0.10 | 79 | 1010.9 |
| 20260502200918 | 11 | 165 | 14.5 | 25.7 | 0.00 | 0.10 | 0.10 | 79 | 1011.0 |
| 20260502200429 | 11 | 152 | 12.9 | 25.7 | 0.00 | 0.10 | 0.10 | 78 | 1011.2 |
| 20260502195924 | 10 | 143 | 11.3 | 25.7 | 0.00 | 0.10 | 0.10 | 79 | 1011.2 |
| 20260502195415 | 11 | 149 | 16.1 | 25.7 | 0.00 | 0.10 | 0.10 | 77 | 1011.2 |
| 20260502194926 | 11 | 191 | 16.1 | 29.0 | 0.00 | 0.10 | 0.10 | 78 | 1011.2 |
| 20260502194417 | 11 | 170 | 16.1 | 35.4 | 0.00 | 0.10 | 0.10 | 77 | 1011.3 |
| 20260502193928 | 11 | 180 | 20.9 | 30.6 | 0.00 | 0.10 | 0.10 | 77 | 1011.3 |
| 20260502193420 | 11 | 142 | 17.7 | 30.6 | 0.00 | 0.10 | 0.10 | 77 | 1011.3 |
| 20260502192930 | 11 | 162 | 20.9 | 30.6 | 0.00 | 0.10 | 0.10 | 78 | 1011.4 |
| 20260502192441 | 11 | 205 | 17.7 | 27.4 | 0.00 | 0.10 | 0.10 | 78 | 1011.5 |
| 20260502191930 | 11 | 207 | 14.5 | 25.7 | 0.00 | 0.10 | 0.10 | 81 | 1011.4 |
| 20260502191425 | 11 | 189 | 14.5 | 27.4 | 0.00 | 0.10 | 0.10 | 80 | 1011.6 |
| 20260502190915 | 10 | 130 | 14.5 | 27.4 | 0.03 | 0.10 | 0.10 | 81 | 1011.7 |
| 20260502190427 | 10 | 178 | 14.5 | 24.1 | 0.03 | 0.10 | 0.10 | 80 | 1011.7 |
| 20260502185919 | 10 | 114 | 9.7 | 19.3 | 0.03 | 0.10 | 0.10 | 82 | 1011.8 |
| 20260502185429 | 10 | 318 | 8.0 | 22.5 | 0.03 | 0.10 | 0.10 | 83 | 1011.7 |
| 20260502184920 | 10 | 204 | 14.5 | 22.5 | 0.03 | 0.10 | 0.10 | 82 | 1011.8 |
| 20260502184411 | 9 | 133 | 9.7 | 19.3 | 0.05 | 0.10 | 0.10 | 84 | 1011.8 |
| 20260502183944 | 9 | 178 | 11.3 | 20.9 | 0.05 | 0.10 | 0.10 | 86 | 1011.9 |
| 20260502183414 | 9 | 180 | 11.3 | 24.1 | 0.05 | 0.10 | 0.10 | 85 | 1012.0 |
| 20260502182928 | 9 | 183 | 8.0 | 20.9 | 0.05 | 0.10 | 0.10 | 88 | 1011.9 |
| 20260502182420 | 9 | 178 | 12.9 | 20.9 | 0.05 | 0.10 | 0.10 | 87 | 1011.9 |
| 20260502181930 | 9 | 131 | 11.3 | 17.7 | 0.08 | 0.10 | 0.10 | 87 | 1012.1 |
| 20260502181421 | 9 | 144 | 8.0 | 20.9 | 0.05 | 0.08 | 0.08 | 86 | 1012.0 |
| 20260502180912 | 9 | 214 | 11.3 | 20.9 | 0.05 | 0.08 | 0.08 | 85 | 1012.0 |
| 20260502180424 | 9 | 218 | 8.0 | 17.7 | 0.05 | 0.08 | 0.08 | 85 | 1012.1 |
| 20260502170441 | 10 | 160 | 14.5 | 25.7 | 0.03 | 0.03 | 0.03 | 76 | 1012.2 |
| 20260502163921 | 10 | 251 | 4.8 | 9.7 | 0.03 | 0.03 | 0.03 | 76 | 1012.3 |
| 20260502163412 | 10 | 246 | 8.0 | 14.5 | 0.03 | 0.03 | 0.03 | 75 | 1012.1 |
| 20260502162924 | 10 | 242 | 8.0 | 16.1 | 0.03 | 0.03 | 0.03 | 73 | 1012.1 |
| 20260502162416 | 10 | 201 | 9.7 | 20.9 | 0.03 | 0.03 | 0.03 | 70 | 1012.1 |
| 20260502161948 | 10 | 213 | 11.3 | 24.1 | 0.03 | 0.03 | 0.03 | 67 | 1012.1 |
| 20260502161419 | 11 | 202 | 9.7 | 17.7 | 0.03 | 0.03 | 0.03 | 70 | 1012.1 |
| 20260502160914 | 11 | 134 | 6.4 | 16.1 | 0.00 | 0.00 | 0.00 | 75 | 1012.6 |
| 20260502160426 | 11 | 109 | 9.7 | 16.1 | 0.00 | 0.00 | 0.00 | 73 | 1012.7 |
| 20260502151929 | 11 | 198 | 9.7 | 17.7 | 0.00 | 0.00 | 0.00 | 68 | 1012.8 |
| 20260502151421 | 11 | 200 | 11.3 | 17.7 | 0.00 | 0.00 | 0.00 | 68 | 1012.7 |
| 20260502150912 | 11 | 56 | 8.0 | 20.9 | 0.00 | 0.00 | 0.00 | 76 | 1012.9 |
| 20260502150424 | 11 | 202 | 11.3 | 20.9 | 0.00 | 0.00 | 0.00 | 74 | 1013.0 |
| 20260502130418 | 8 | 254 | 4.8 | 14.5 | 0.00 | 0.00 | 0.00 | 83 | 1014.0 |
| 20260502123427 | 9 | 256 | 16.1 | 25.7 | 0.00 | 0.00 | 0.00 | 80 | 1013.9 |
| 20260502122919 | 9 | 253 | 12.9 | 24.1 | 0.00 | 0.00 | 0.00 | 79 | 1013.8 |
| 20260502122414 | 9 | 245 | 16.1 | 24.1 | 0.00 | 0.00 | 0.00 | 79 | 1013.7 |
| 20260502121947 | 9 | 253 | 16.1 | 19.3 | 0.00 | 0.00 | 0.00 | 79 | 1013.6 |
| 20260502121418 | 9 | 196 | 12.9 | 17.7 | 0.00 | 0.00 | 0.00 | 78 | 1013.5 |
| 20260502120950 | 9 | 256 | 11.3 | 17.7 | 0.00 | 0.00 | 0.00 | 78 | 1013.3 |
| 20260502120442 | 9 | 243 | 9.7 | 17.7 | 0.00 | 0.00 | 0.00 | 78 | 1013.2 |
| 20260502115913 | 9 | 197 | 9.7 | 19.3 | 0.00 | 0.00 | 0.00 | 78 | 1013.1 |
| 20260502115425 | 9 | 233 | 9.7 | 14.5 | 0.00 | 0.00 | 0.00 | 78 | 1013.2 |
| 20260502114917 | 9 | 209 | 9.7 | 14.5 | 0.00 | 0.00 | 0.00 | 78 | 1013.0 |
| 20260502114428 | 9 | 207 | 6.4 | 11.3 | 0.00 | 0.00 | 0.00 | 79 | 1012.9 |
| 20260502113920 | 8 | 236 | 6.4 | 12.9 | 0.00 | 0.00 | 0.00 | 79 | 1012.8 |
| 20260502113433 | 8 | 196 | 8.0 | 12.9 | 0.00 | 0.00 | 0.00 | 80 | 1012.8 |
| 20260502112928 | 8 | 192 | 6.4 | 9.7 | 0.00 | 0.00 | 0.00 | 80 | 1012.8 |
| 20260502112419 | 8 | 284 | 4.8 | 9.7 | 0.00 | 0.00 | 0.00 | 80 | 1012.6 |
| 20260502111911 | 8 | 207 | 4.8 | 14.5 | 0.00 | 0.00 | 0.00 | 80 | 1012.7 |
| 20260502111444 | 8 | 216 | 4.8 | 14.5 | 0.00 | 0.00 | 0.00 | 80 | 1012.8 |
| 20260502110915 | 8 | 212 | 6.4 | 12.9 | 0.00 | 0.00 | 0.00 | 80 | 1012.9 |
| 20260502110427 | 8 | 219 | 8.0 | 12.9 | 0.00 | 0.00 | 0.00 | 80 | 1012.8 |
| 20260502105919 | 8 | 211 | 8.0 | 14.5 | 0.00 | 0.00 | 0.00 | 79 | 1012.8 |
| 20260502105410 | 8 | 211 | 8.0 | 16.1 | 0.00 | 0.00 | 0.00 | 79 | 1012.8 |
| 20260502104923 | 8 | 204 | 9.7 | 16.1 | 0.00 | 0.00 | 0.00 | 79 | 1012.8 |
| 20260502104418 | 8 | 206 | 9.7 | 16.1 | 0.00 | 0.00 | 0.00 | 79 | 1012.8 |
| 20260502103927 | 8 | 216 | 9.7 | 20.9 | 0.00 | 0.00 | 0.00 | 78 | 1012.6 |
| 20260502103419 | 8 | 205 | 11.3 | 20.9 | 0.00 | 0.00 | 0.00 | 78 | 1012.6 |
| 20260502102911 | 8 | 181 | 8.0 | 16.1 | 0.00 | 0.00 | 0.00 | 78 | 1012.7 |
| 20260502102423 | 8 | 188 | 9.7 | 17.7 | 0.00 | 0.00 | 0.00 | 77 | 1012.8 |
| 20260502101914 | 8 | 204 | 11.3 | 16.1 | 0.00 | 0.00 | 0.00 | 77 | 1012.7 |
| 20260502101427 | 8 | 193 | 9.7 | 12.9 | 0.00 | 0.00 | 0.00 | 77 | 1012.5 |
| 20260502100918 | 8 | 192 | 8.0 | 14.5 | 0.00 | 0.00 | 0.00 | 77 | 1012.5 |
| 20260502100414 | 8 | 193 | 6.4 | 14.5 | 0.00 | 0.00 | 0.00 | 77 | 1012.4 |
| 20260502091414 | 8 | 221 | 8.0 | 12.9 | 0.00 | 0.00 | 0.00 | 78 | 1012.2 |
| 20260502090948 | 8 | 206 | 6.4 | 11.3 | 0.00 | 0.00 | 0.00 | 78 | 1012.2 |
| 20260502090438 | 8 | 184 | 8.0 | 17.7 | 0.00 | 0.00 | 0.00 | 78 | 1012.3 |
| 20260502071415 | 9 | 258 | 4.8 | 11.3 | 0.00 | 0.00 | 0.00 | 69 | 1012.4 |
| 20260502070926 | 9 | 233 | 6.4 | 11.3 | 0.00 | 0.00 | 0.00 | 69 | 1012.4 |
| 20260502070437 | 9 | 237 | 6.4 | 12.9 | 0.00 | 0.00 | 0.00 | 69 | 1012.4 |
| 20260502065927 | 9 | 213 | 4.8 | 12.9 | 0.00 | 0.00 | 0.00 | 68 | 1012.4 |
| 20260502065439 | 10 | 273 | 6.4 | 16.1 | 0.00 | 0.00 | 0.00 | 68 | 1012.5 |
| 20260502064913 | 10 | 243 | 9.7 | 16.1 | 0.00 | 0.00 | 0.00 | 68 | 1012.5 |
| 20260502064424 | 10 | 244 | 9.7 | 16.1 | 0.00 | 0.00 | 0.00 | 68 | 1012.6 |
| 20260502063914 | 10 | 240 | 9.7 | 14.5 | 0.00 | 0.00 | 0.00 | 68 | 1012.6 |
| 20260502063447 | 10 | 246 | 8.0 | 19.3 | 0.00 | 0.00 | 0.00 | 68 | 1012.7 |
| 20260502062916 | 10 | 235 | 12.9 | 19.3 | 0.00 | 0.00 | 0.00 | 68 | 1012.6 |
| 20260502062427 | 10 | 230 | 11.3 | 17.7 | 0.00 | 0.00 | 0.00 | 68 | 1012.6 |
| 20260502061940 | 10 | 235 | 8.0 | 14.5 | 0.00 | 0.00 | 0.00 | 67 | 1012.6 |
| 20260502060921 | 10 | 223 | 8.0 | 14.5 | 0.00 | 0.00 | 0.00 | 67 | 1012.5 |
| 20260502060433 | 9 | 225 | 6.4 | 12.9 | 0.00 | 0.00 | 0.00 | 67 | 1012.5 |
| 20260502055922 | 9 | 235 | 6.4 | 14.5 | 0.00 | 0.00 | 0.00 | 67 | 1012.5 |
| 20260502055417 | 9 | 232 | 6.4 | 14.5 | 0.00 | 0.00 | 0.00 | 67 | 1012.5 |
| 20260502054928 | 9 | 307 | 4.8 | 9.7 | 0.00 | 0.00 | 0.00 | 66 | 1012.4 |
| 20260502054419 | 9 | 214 | 6.4 | 12.9 | 0.00 | 0.00 | 0.00 | 66 | 1012.5 |
| 20260502053911 | 9 | 217 | 6.4 | 11.3 | 0.00 | 0.00 | 0.00 | 66 | 1012.5 |
| 20260502053422 | 9 | 236 | 6.4 | 11.3 | 0.00 | 0.00 | 0.00 | 66 | 1012.6 |
| 20260502052912 | 9 | 231 | 8.0 | 12.9 | 0.00 | 0.00 | 0.00 | 66 | 1012.6 |
| 20260502052423 | 9 | 237 | 8.0 | 12.9 | 0.00 | 0.00 | 0.00 | 66 | 1012.6 |
| 20260502051914 | 10 | 207 | 9.7 | 14.5 | 0.00 | 0.00 | 0.00 | 65 | 1012.7 |
| 20260502051446 | 10 | 204 | 9.7 | 14.5 | 0.00 | 0.00 | 0.00 | 65 | 1012.7 |
| 20260502050920 | 10 | 199 | 4.8 | 9.7 | 0.00 | 0.00 | 0.00 | 65 | 1012.7 |
| 20260502050411 | 10 | 204 | 4.8 | 8.0 | 0.00 | 0.00 | 0.00 | 64 | 1012.6 |
| 20260502045922 | 10 | 199 | 4.8 | 8.0 | 0.00 | 0.00 | 0.00 | 64 | 1012.7 |
| 20260502045412 | 10 | 202 | 6.4 | 11.3 | 0.00 | 0.00 | 0.00 | 63 | 1012.6 |
| 20260502044923 | 10 | 249 | 6.4 | 11.3 | 0.00 | 0.00 | 0.00 | 63 | 1012.5 |
| 20260502044413 | 10 | 213 | 4.8 | 14.5 | 0.00 | 0.00 | 0.00 | 62 | 1012.6 |
| 20260502043924 | 10 | 252 | 8.0 | 16.1 | 0.00 | 0.00 | 0.00 | 62 | 1012.6 |
| 20260502043415 | 10 | 233 | 9.7 | 16.1 | 0.00 | 0.00 | 0.00 | 62 | 1012.6 |
| 20260502042946 | 10 | 249 | 8.0 | 14.5 | 0.00 | 0.00 | 0.00 | 61 | 1012.7 |
| 20260502042419 | 10 | 228 | 11.3 | 20.9 | 0.00 | 0.00 | 0.00 | 61 | 1012.7 |
| 20260502041910 | 10 | 216 | 11.3 | 20.9 | 0.00 | 0.00 | 0.00 | 60 | 1012.8 |
| 20260502041421 | 10 | 230 | 12.9 | 17.7 | 0.00 | 0.00 | 0.00 | 60 | 1012.7 |
| 20260502040912 | 10 | 231 | 12.9 | 17.7 | 0.00 | 0.00 | 0.00 | 59 | 1012.6 |
| 20260502040423 | 10 | 235 | 11.3 | 17.7 | 0.00 | 0.00 | 0.00 | 58 | 1012.7 |
| 20260502035935 | 10 | 235 | 11.3 | 19.3 | 0.00 | 0.00 | 0.00 | 58 | 1012.7 |
| 20260502035425 | 10 | 240 | 12.9 | 19.3 | 0.00 | 0.00 | 0.00 | 57 | 1012.7 |
| 20260502034915 | 10 | 240 | 11.3 | 17.7 | 0.00 | 0.00 | 0.00 | 57 | 1012.5 |
| 20260502034425 | 11 | 238 | 11.3 | 17.7 | 0.00 | 0.00 | 0.00 | 57 | 1012.6 |
| 20260502033920 | 11 | 247 | 12.9 | 22.5 | 0.00 | 0.00 | 0.00 | 56 | 1012.6 |
| 20260502033412 | 11 | 247 | 14.5 | 22.5 | 0.00 | 0.00 | 0.00 | 56 | 1012.5 |
| 20260502032922 | 11 | 245 | 12.9 | 22.5 | 0.00 | 0.00 | 0.00 | 56 | 1012.7 |
| 20260502032434 | 11 | 242 | 12.9 | 22.5 | 0.00 | 0.00 | 0.00 | 55 | 1012.7 |
| 20260502031922 | 11 | 239 | 14.5 | 25.7 | 0.00 | 0.00 | 0.00 | 54 | 1012.7 |
| 20260502031433 | 11 | 219 | 14.5 | 25.7 | 0.00 | 0.00 | 0.00 | 54 | 1012.7 |
| 20260502030924 | 11 | 240 | 14.5 | 24.1 | 0.00 | 0.00 | 0.00 | 53 | 1012.7 |
| 20260502030435 | 11 | 252 | 14.5 | 25.7 | 0.00 | 0.00 | 0.00 | 52 | 1012.6 |
| 20260502025925 | 11 | 237 | 14.5 | 25.7 | 0.00 | 0.00 | 0.00 | 51 | 1012.3 |
| 20260502025416 | 11 | 239 | 16.1 | 25.7 | 0.00 | 0.00 | 0.00 | 51 | 1012.5 |
| 20260502024948 | 11 | 247 | 14.5 | 24.1 | 0.00 | 0.00 | 0.00 | 50 | 1012.6 |
| 20260502024438 | 11 | 242 | 17.7 | 24.1 | 0.00 | 0.00 | 0.00 | 50 | 1012.6 |
| 20260502023911 | 11 | 249 | 14.5 | 22.5 | 0.00 | 0.00 | 0.00 | 49 | 1012.4 |
| 20260502023422 | 11 | 234 | 14.5 | 24.1 | 0.00 | 0.00 | 0.00 | 48 | 1012.5 |
| 20260502022913 | 11 | 249 | 17.7 | 24.1 | 0.00 | 0.00 | 0.00 | 48 | 1012.5 |
| 20260502022425 | 11 | 209 | 16.1 | 29.0 | 0.00 | 0.00 | 0.00 | 47 | 1012.5 |
| 20260502021916 | 12 | 209 | 16.1 | 22.5 | 0.00 | 0.00 | 0.00 | 45 | 1012.5 |
| 20260502021408 | 12 | 248 | 12.9 | 19.3 | 0.00 | 0.00 | 0.00 | 43 | 1012.5 |
| 20260502020920 | 13 | 206 | 12.9 | 19.3 | 0.00 | 0.00 | 0.00 | 41 | 1012.4 |
| 20260502020412 | 13 | 233 | 8.0 | 11.3 | 0.00 | 0.00 | 0.00 | 36 | 1012.2 |
| 20260502015928 | 13 | 234 | 6.4 | 9.7 | 0.00 | 0.00 | 0.00 | 36 | 1012.1 |
| 20260502015419 | 13 | 237 | 6.4 | 8.0 | 0.00 | 0.00 | 0.00 | 35 | 1012.1 |
| 20260502014911 | 13 | 233 | 6.4 | 6.4 | 0.00 | 0.00 | 0.00 | 35 | 1012.1 |
| 20260502014423 | 13 | 242 | 6.4 | 8.0 | 0.00 | 0.00 | 0.00 | 35 | 1012.1 |
| 20260502013915 | 13 | 243 | 8.0 | 8.0 | 0.00 | 0.00 | 0.00 | 35 | 1012.1 |
| 20260502013427 | 13 | 249 | 8.0 | 8.0 | 0.00 | 0.00 | 0.00 | 35 | 1012.2 |
| 20260502012919 | 13 | 249 | 8.0 | 9.7 | 0.00 | 0.00 | 0.00 | 35 | 1012.2 |
| 20260502012411 | 13 | 249 | 6.4 | 9.7 | 0.00 | 0.00 | 0.00 | 35 | 1012.2 |
| 20260502011927 | 13 | 249 | 8.0 | 9.7 | 0.00 | 0.00 | 0.00 | 35 | 1012.2 |
| 20260502011418 | 13 | 242 | 6.4 | 8.0 | 0.00 | 0.00 | 0.00 | 35 | 1012.0 |
| 20260502010909 | 13 | 244 | 6.4 | 8.0 | 0.00 | 0.00 | 0.00 | 35 | 1012.0 |
| 20260502010421 | 13 | 252 | 4.8 | 6.4 | 0.00 | 0.00 | 0.00 | 35 | 1011.9 |
| 20260502005913 | 14 | 265 | 6.4 | 6.4 | 0.00 | 0.00 | 0.00 | 35 | 1011.7 |
| 20260502005425 | 14 | 268 | 4.8 | 6.4 | 0.00 | 0.00 | 0.00 | 35 | 1011.7 |
| 20260502004917 | 13 | 275 | 3.2 | 4.8 | 0.00 | 0.00 | 0.00 | 35 | 1011.7 |
| 20260502004449 | 13 | 297 | 1.6 | 3.2 | 0.00 | 0.00 | 0.00 | 35 | 1011.6 |
| 20260502003919 | 13 | 298 | 3.2 | 3.2 | 0.00 | 0.00 | 0.00 | 35 | 1011.6 |
| 20260502003415 | 14 | 291 | 1.6 | 4.8 | 0.00 | 0.00 | 0.00 | 35 | 1011.5 |
| 20260502002927 | 13 | 281 | 3.2 | 4.8 | 0.00 | 0.00 | 0.00 | 35 | 1011.4 |
| 20260502002418 | 13 | 275 | 3.2 | 4.8 | 0.00 | 0.00 | 0.00 | 35 | 1011.4 |
| 20260502001910 | 13 | 295 | 1.6 | 6.4 | 0.00 | 0.00 | 0.00 | 35 | 1011.2 |
| 20260502001422 | 14 | 286 | 3.2 | 6.4 | 0.00 | 0.00 | 0.00 | 35 | 1011.0 |
| 20260502000935 | 14 | 276 | 3.2 | 6.4 | 0.00 | 0.00 | 0.00 | 35 | 1011.0 |